Showing default

IRNSS 1D, 40547

Orbit data source: Space-Track

IRNSS 1D, 40547 is a payload satellite owned by ISRO (IN) in GEO that was launched on Sat, 28 Mar 2015 UTC via a PSLV-XL launch vehicle from the Sirharikota (SRI). Payload-class satellites include a variety of spacecraft equipped with specific instruments for various scientific and technological missions. These include communications satellites like Starlink; space stations such as the ISS; scientific satellites like the Hubble; Earth observation satellites from companies like Planet Labs, Umbra, and HawkEye 360; GPS; miniature CubeSats for education and research; and military/defense satellites.

Loading next visibility...
Identifier
40547, 2015-018A
Orbit
GEO
Country
Flag of ININ / IND
Related business
Manufacturer
ISRO SAC/Banga
Mission
Non-operational Civil Navigation
Bus & Motor
I1K, ISRO LAM
Mass
1,425 kg wet, 603 kg dry
Launch date (UTC)
2015-03-28 (11 years ago)
Launch vehicle
PSLV-XL
Launch site
Sirharikota (SRI)
Object type
Payload
Rocket body
Debris
Shape & HBR
Box + 2 Pan, 5.0 m
Radar Cross Section
6.961 m², Large (>1 m²)

Expand to show TLE details & history
Last TLE update: 1 day ago

TLE from 1 day ago
0 IRNSS 1D
1 40547U 15018A   26062.36118134 -.00000085  00000-0  00000-0 0  9992
2 40547  19.7895 240.9501 0008381 358.2166 354.7200  0.97958534 39860
Epoch: 2026-03-03T08:40Z
TLE epoch observation values (Epoch: 2026-03-03T08:40:06.067Z)
Latitude
-2.34301°
Longitude
-56.8207°
Altitude
36,412.186 km
Speed
3.053 km/s
True Right ascension
15h 37m 23s
True Declination
-2° 20' 26"
Sunlit
Object was in daylight at epoch
Visualization orbit readout
Latitude
Unknown
Longitude
Unknown
Altitude
Unknown
Speed
Unknown
Apparent Right ascension
Unknown
Apparent Declination
Unknown
Sunlit
N/A
Visualization observer readout
Local Sidereal Time
20:17:15
Azimuth
Unknown
Elevation
Unknown
Doppler factor
Unknown
Orbital elements
Apogee altitude
36,484.582 km
Perigee altitude
36,412.796 km
Semi-major axis
42,826.826 km
Eccentricity
0.00084
Inclination
19.7895°
RAAN
240.9501°
Arg. of periapsis
358.2166°
True anomaly
354.71115°
Mean anomaly
354.72°
Eccentric anomaly
354.71558°
Mean motion
0.24489 °/min
Orbital period
1,470.05 mins
BSTAR
0
Loading maneuver chart data...
Computing Atmospheric mass density...
Loading historical data...
Loading historical data...
Loading historical data...
Loading historical data...
Loading historical data...
Loading historical data...
Loading historical data...
Other satellites on launch #18 in the year 2015 (2015-03-28 UTC)

Documentation

Showing up to 5 results
|